| time (UTC) | temp C | wind direction | speed KPH | gust KPH | rain 1hr cm | rain 24hr cm | rain mn cm | humidity % | barometer mb |
| 20260505160751 | 12 | 69 | 40.2 | 54.7 | 0.00 | 0.00 | 0.00 | 45 | 1010.2 |
| 20260505160251 | 12 | 63 | 40.2 | 46.7 | 0.00 | 0.00 | 0.00 | 45 | 1010.2 |
| 20260505153247 | 11 | 55 | 32.2 | 48.3 | 0.00 | 0.00 | 0.00 | 47 | 1010.2 |
| 20260505152746 | 11 | 76 | 35.4 | 53.1 | 0.00 | 0.00 | 0.00 | 47 | 1010.0 |
| 20260505152245 | 11 | 68 | 37.0 | 51.5 | 0.00 | 0.00 | 0.00 | 47 | 1010.0 |
| 20260505151745 | 11 | 72 | 37.0 | 53.1 | 0.00 | 0.00 | 0.00 | 47 | 1010.0 |
| 20260505151245 | 11 | 86 | 43.5 | 46.7 | 0.00 | 0.00 | 0.00 | 46 | 1009.9 |
| 20260505150744 | 11 | 52 | 32.2 | 46.7 | 0.00 | 0.00 | 0.00 | 47 | 1010.0 |
| 20260505140233 | 11 | 53 | 22.5 | 40.2 | 0.00 | 0.00 | 0.00 | 53 | 1009.8 |
| 20260505130225 | 11 | 45 | 24.1 | 35.4 | 0.00 | 0.00 | 0.00 | 52 | 1009.1 |
| 20260505124724 | 11 | 77 | 22.5 | 37.0 | 0.00 | 0.00 | 0.00 | 52 | 1008.8 |
| 20260505124223 | 11 | 69 | 24.1 | 33.8 | 0.00 | 0.00 | 0.00 | 54 | 1008.6 |
| 20260505123721 | 11 | 62 | 27.4 | 29.0 | 0.00 | 0.00 | 0.00 | 55 | 1008.6 |
| 20260505123221 | 11 | 107 | 19.3 | 27.4 | 0.00 | 0.00 | 0.00 | 55 | 1008.8 |
| 20260505122721 | 11 | 52 | 17.7 | 20.9 | 0.00 | 0.00 | 0.00 | 55 | 1008.9 |
| 20260505122219 | 11 | 51 | 12.9 | 24.1 | 0.00 | 0.00 | 0.00 | 54 | 1009.0 |
| 20260505121718 | 11 | 51 | 17.7 | 37.0 | 0.00 | 0.00 | 0.00 | 55 | 1008.8 |
| 20260505121217 | 11 | 59 | 24.1 | 30.6 | 0.00 | 0.00 | 0.00 | 55 | 1008.6 |
| 20260505120716 | 11 | 58 | 19.3 | 30.6 | 0.00 | 0.00 | 0.00 | 57 | 1008.4 |
| 20260505120216 | 11 | 55 | 22.5 | 35.4 | 0.00 | 0.00 | 0.00 | 57 | 1008.3 |
| 20260505115715 | 11 | 62 | 24.1 | 29.0 | 0.00 | 0.00 | 0.00 | 58 | 1008.2 |
| 20260505115401 | 11 | 69 | 20.9 | 24.1 | 0.00 | 0.00 | 0.00 | 59 | 1008.2 |
| 20260505115215 | 11 | 69 | 20.9 | 24.1 | 0.00 | 0.00 | 0.00 | 59 | 1008.2 |
| 20260505114714 | 11 | 58 | 19.3 | 25.7 | 0.00 | 0.00 | 0.00 | 59 | 1008.1 |
| 20260505114214 | 11 | 75 | 20.9 | 29.0 | 0.00 | 0.00 | 0.00 | 59 | 1008.0 |
| 20260505113713 | 11 | 63 | 22.5 | 27.4 | 0.00 | 0.00 | 0.00 | 57 | 1007.8 |
| 20260505113213 | 11 | 87 | 20.9 | 22.5 | 0.00 | 0.00 | 0.00 | 56 | 1008.0 |
| 20260505112711 | 11 | 80 | 16.1 | 20.9 | 0.00 | 0.00 | 0.00 | 57 | 1008.1 |
| 20260505112211 | 11 | 60 | 16.1 | 19.3 | 0.00 | 0.00 | 0.00 | 56 | 1008.1 |
| 20260505111808 | 11 | 93 | 16.1 | 20.9 | 0.00 | 0.00 | 0.00 | 56 | 1008.1 |
| 20260505111710 | 11 | 93 | 16.1 | 20.9 | 0.00 | 0.00 | 0.00 | 56 | 1008.1 |
| 20260505111210 | 11 | 77 | 14.5 | 20.9 | 0.00 | 0.00 | 0.00 | 57 | 1008.1 |
| 20260505110709 | 11 | 72 | 16.1 | 25.7 | 0.00 | 0.00 | 0.00 | 57 | 1008.0 |
| 20260505110209 | 11 | 83 | 19.3 | 25.7 | 0.00 | 0.00 | 0.00 | 57 | 1007.8 |
| 20260505102205 | 11 | 84 | 20.9 | 20.9 | 0.00 | 0.00 | 0.00 | 56 | 1007.4 |
| 20260505101704 | 11 | 89 | 16.1 | 19.3 | 0.00 | 0.00 | 0.00 | 57 | 1007.3 |
| 20260505101204 | 11 | 94 | 16.1 | 24.1 | 0.00 | 0.00 | 0.00 | 57 | 1007.0 |
| 20260505100703 | 11 | 93 | 17.7 | 22.5 | 0.00 | 0.00 | 0.00 | 56 | 1007.0 |
| 20260505100203 | 11 | 90 | 16.1 | 20.9 | 0.00 | 0.00 | 0.00 | 57 | 1007.0 |
| 20260505095702 | 11 | 86 | 16.1 | 19.3 | 0.00 | 0.00 | 0.00 | 57 | 1007.0 |
| 20260505095201 | 11 | 108 | 12.9 | 14.5 | 0.00 | 0.00 | 0.00 | 56 | 1007.0 |
| 20260505094701 | 11 | 60 | 9.7 | 14.5 | 0.00 | 0.00 | 0.00 | 55 | 1007.0 |
| 20260505094200 | 11 | 70 | 11.3 | 9.7 | 0.00 | 0.00 | 0.00 | 54 | 1007.0 |
| 20260505093700 | 11 | 60 | 6.4 | 8.0 | 0.00 | 0.00 | 0.00 | 54 | 1007.0 |
| 20260505093159 | 11 | 46 | 4.8 | 12.9 | 0.00 | 0.00 | 0.00 | 54 | 1006.9 |
| 20260505092659 | 11 | 91 | 3.2 | 16.1 | 0.00 | 0.00 | 0.00 | 54 | 1006.9 |
| 20260505092158 | 10 | 105 | 6.4 | 9.7 | 0.00 | 0.00 | 0.00 | 55 | 1006.8 |
| 20260505091658 | 10 | 94 | 8.0 | 11.3 | 0.00 | 0.00 | 0.00 | 55 | 1006.7 |
| 20260505091157 | 9 | 110 | 6.4 | 9.7 | 0.00 | 0.00 | 0.00 | 58 | 1006.7 |
| 20260505090657 | 9 | 115 | 8.0 | 11.3 | 0.00 | 0.00 | 0.00 | 57 | 1006.7 |
| 20260505090156 | 9 | 114 | 6.4 | 11.3 | 0.00 | 0.00 | 0.00 | 58 | 1006.7 |
| 20260505085656 | 8 | 80 | 8.0 | 9.7 | 0.00 | 0.00 | 0.00 | 57 | 1006.6 |
| 20260505085155 | 8 | 32 | 3.2 | 11.3 | 0.00 | 0.00 | 0.00 | 61 | 1006.5 |
| 20260505084655 | 9 | 80 | 3.2 | 9.7 | 0.00 | 0.00 | 0.00 | 60 | 1006.3 |
| 20260505084154 | 9 | 169 | 8.0 | 8.0 | 0.00 | 0.00 | 0.00 | 59 | 1006.2 |
| 20260505083654 | 9 | 150 | 6.4 | 6.4 | 0.00 | 0.00 | 0.00 | 57 | 1006.3 |
| 20260505083153 | 10 | 153 | 4.8 | 6.4 | 0.00 | 0.00 | 0.00 | 56 | 1006.3 |
| 20260505082653 | 10 | 212 | 3.2 | 8.0 | 0.00 | 0.00 | 0.00 | 57 | 1006.2 |
| 20260505082152 | 10 | 176 | 6.4 | 9.7 | 0.00 | 0.00 | 0.00 | 56 | 1006.2 |
| 20260505081652 | 10 | 110 | 6.4 | 9.7 | 0.00 | 0.00 | 0.00 | 52 | 1006.2 |
| 20260505081151 | 11 | 108 | 4.8 | 6.4 | 0.00 | 0.00 | 0.00 | 54 | 1006.2 |
| 20260505080651 | 11 | 60 | 4.8 | 6.4 | 0.00 | 0.00 | 0.00 | 55 | 1006.2 |
| 20260505080150 | 11 | 128 | 3.2 | 9.7 | 0.00 | 0.00 | 0.00 | 54 | 1006.1 |
| 20260505075650 | 11 | 163 | 8.0 | 8.0 | 0.00 | 0.00 | 0.00 | 50 | 1006.0 |
| 20260505075149 | 11 | 156 | 8.0 | 6.4 | 0.00 | 0.00 | 0.00 | 51 | 1006.0 |
| 20260505074801 | 11 | 127 | 1.6 | 1.6 | 0.00 | 0.00 | 0.00 | 51 | 1006.2 |
| 20260505074649 | 11 | 127 | 1.6 | 1.6 | 0.00 | 0.00 | 0.00 | 51 | 1006.2 |
| 20260505074150 | 11 | 80 | 0.0 | 6.4 | 0.00 | 0.00 | 0.00 | 51 | 1006.2 |
| 20260505073648 | 11 | 155 | 3.2 | 14.5 | 0.00 | 0.00 | 0.00 | 52 | 1006.2 |
| 20260505073148 | 11 | 53 | 8.0 | 12.9 | 0.00 | 0.00 | 0.00 | 52 | 1006.2 |
| 20260505072648 | 12 | 30 | 8.0 | 11.3 | 0.00 | 0.00 | 0.00 | 48 | 1006.1 |
| 20260505072147 | 12 | 49 | 9.7 | 14.5 | 0.00 | 0.00 | 0.00 | 47 | 1006.1 |
| 20260505071647 | 12 | 37 | 11.3 | 17.7 | 0.00 | 0.00 | 0.00 | 45 | 1006.0 |
| 20260505071146 | 13 | 46 | 16.1 | 20.9 | 0.00 | 0.00 | 0.00 | 43 | 1005.9 |
| 20260505070645 | 12 | 60 | 17.7 | 20.9 | 0.00 | 0.00 | 0.00 | 43 | 1005.8 |
| 20260505070145 | 13 | 55 | 14.5 | 14.5 | 0.00 | 0.00 | 0.00 | 41 | 1005.8 |
| 20260505065645 | 13 | 80 | 12.9 | 20.9 | 0.00 | 0.00 | 0.00 | 41 | 1005.6 |
| 20260505065143 | 12 | 69 | 17.7 | 24.1 | 0.00 | 0.00 | 0.00 | 44 | 1005.5 |
| 20260505064643 | 11 | 28 | 16.1 | 12.9 | 0.00 | 0.00 | 0.00 | 43 | 1005.5 |
| 20260505064143 | 11 | 186 | 11.3 | 14.5 | 0.00 | 0.00 | 0.00 | 43 | 1005.3 |
| 20260505063142 | 11 | 201 | 11.3 | 16.1 | 0.00 | 0.00 | 0.00 | 44 | 1005.2 |
| 20260505062641 | 11 | 207 | 12.9 | 16.1 | 0.00 | 0.00 | 0.00 | 43 | 1005.2 |
| 20260505062141 | 11 | 207 | 14.5 | 16.1 | 0.00 | 0.00 | 0.00 | 44 | 1005.2 |
| 20260505061640 | 11 | 198 | 12.9 | 16.1 | 0.00 | 0.00 | 0.00 | 44 | 1005.1 |
| 20260505061137 | 11 | 197 | 11.3 | 14.5 | 0.00 | 0.00 | 0.00 | 43 | 1005.1 |
| 20260505060135 | 12 | 203 | 11.3 | 9.7 | 0.00 | 0.00 | 0.00 | 38 | 1005.1 |
| 20260505055634 | 12 | 186 | 8.0 | 12.9 | 0.00 | 0.00 | 0.00 | 38 | 1005.1 |
| 20260505055134 | 12 | 179 | 11.3 | 12.9 | 0.00 | 0.00 | 0.00 | 37 | 1005.0 |
| 20260505054631 | 12 | 186 | 11.3 | 14.5 | 0.00 | 0.00 | 0.00 | 38 | 1005.1 |
| 20260505054131 | 11 | 170 | 11.3 | 14.5 | 0.00 | 0.00 | 0.00 | 41 | 1005.0 |
| 20260505053630 | 11 | 191 | 12.9 | 14.5 | 0.00 | 0.00 | 0.00 | 43 | 1004.8 |
| 20260505053130 | 11 | 218 | 11.3 | 14.5 | 0.00 | 0.00 | 0.00 | 44 | 1004.8 |
| 20260505052629 | 11 | 183 | 9.7 | 12.9 | 0.00 | 0.00 | 0.00 | 42 | 1004.8 |
| 20260505052127 | 13 | 214 | 9.7 | 12.9 | 0.00 | 0.00 | 0.00 | 37 | 1004.8 |
| 20260505051626 | 13 | 191 | 11.3 | 16.1 | 0.00 | 0.00 | 0.00 | 36 | 1004.8 |
| 20260505051126 | 13 | 174 | 12.9 | 16.1 | 0.00 | 0.00 | 0.00 | 36 | 1004.8 |
| 20260505050625 | 13 | 179 | 14.5 | 17.7 | 0.00 | 0.00 | 0.00 | 37 | 1004.8 |
| 20260505050125 | 13 | 167 | 14.5 | 17.7 | 0.00 | 0.00 | 0.00 | 38 | 1005.0 |
| 20260505041620 | 15 | 162 | 1.6 | 14.5 | 0.00 | 0.00 | 0.00 | 35 | 1005.0 |
| 20260505041118 | 16 | 212 | 9.7 | 14.5 | 0.00 | 0.00 | 0.00 | 31 | 1005.0 |
| 20260505040649 | 16 | 177 | 12.9 | 14.5 | 0.00 | 0.00 | 0.00 | 31 | 1005.0 |
| 20260505040617 | 16 | 177 | 12.9 | 14.5 | 0.00 | 0.00 | 0.00 | 31 | 1005.0 |
| 20260505040117 | 15 | 181 | 12.9 | 14.5 | 0.00 | 0.00 | 0.00 | 32 | 1005.0 |
| 20260505035616 | 14 | 177 | 12.9 | 14.5 | 0.00 | 0.00 | 0.00 | 36 | 1004.8 |
| 20260505035116 | 14 | 179 | 14.5 | 14.5 | 0.00 | 0.00 | 0.00 | 39 | 1004.8 |
| 20260505034615 | 15 | 163 | 11.3 | 12.9 | 0.00 | 0.00 | 0.00 | 38 | 1004.7 |
| 20260505034114 | 14 | 162 | 9.7 | 11.3 | 0.00 | 0.00 | 0.00 | 38 | 1004.7 |
| 20260505033615 | 15 | 246 | 0.0 | 0.0 | 0.00 | 0.00 | 0.00 | 39 | 1004.6 |
| 20260505033113 | 17 | 246 | 0.0 | 0.0 | 0.00 | 0.00 | 0.00 | 33 | 1004.5 |
| 20260505032615 | 18 | 246 | 0.0 | 1.6 | 0.00 | 0.00 | 0.00 | 29 | 1004.4 |
| 20260505032112 | 18 | 246 | 0.0 | 6.4 | 0.00 | 0.00 | 0.00 | 30 | 1004.4 |
| 20260505031612 | 18 | 262 | 1.6 | 6.4 | 0.00 | 0.00 | 0.00 | 29 | 1004.3 |
| 20260505031111 | 18 | 263 | 3.2 | 8.0 | 0.00 | 0.00 | 0.00 | 29 | 1004.3 |
| 20260505030611 | 18 | 276 | 4.8 | 8.0 | 0.00 | 0.00 | 0.00 | 28 | 1004.3 |
| 20260505030110 | 19 | 255 | 6.4 | 9.7 | 0.00 | 0.00 | 0.00 | 28 | 1004.1 |
| 20260505025610 | 19 | 260 | 8.0 | 9.7 | 0.00 | 0.00 | 0.00 | 27 | 1004.1 |
| 20260505025109 | 19 | 271 | 6.4 | 11.3 | 0.00 | 0.00 | 0.00 | 27 | 1004.1 |
| 20260505024609 | 20 | 262 | 8.0 | 12.9 | 0.00 | 0.00 | 0.00 | 28 | 1004.1 |
| 20260505024108 | 20 | 266 | 9.7 | 11.3 | 0.00 | 0.00 | 0.00 | 28 | 1004.1 |
| 20260505023643 | 20 | 271 | 9.7 | 12.9 | 0.00 | 0.00 | 0.00 | 27 | 1004.0 |
| 20260505023607 | 20 | 271 | 9.7 | 12.9 | 0.00 | 0.00 | 0.00 | 27 | 1004.0 |
| 20260505023106 | 20 | 274 | 9.7 | 16.1 | 0.00 | 0.00 | 0.00 | 27 | 1004.0 |
| 20260505022606 | 20 | 267 | 12.9 | 17.7 | 0.00 | 0.00 | 0.00 | 26 | 1004.0 |
| 20260505022105 | 20 | 269 | 12.9 | 16.1 | 0.00 | 0.00 | 0.00 | 26 | 1003.9 |
| 20260505021605 | 21 | 267 | 11.3 | 17.7 | 0.00 | 0.00 | 0.00 | 24 | 1003.9 |
| 20260505021104 | 21 | 274 | 12.9 | 20.9 | 0.00 | 0.00 | 0.00 | 23 | 1003.9 |
| 20260505020604 | 21 | 273 | 17.7 | 20.9 | 0.00 | 0.00 | 0.00 | 23 | 1003.9 |
| 20260505020103 | 21 | 264 | 14.5 | 22.5 | 0.00 | 0.00 | 0.00 | 23 | 1003.8 |
| 20260505015603 | 22 | 271 | 14.5 | 22.5 | 0.00 | 0.00 | 0.00 | 23 | 1003.9 |
| 20260505015102 | 22 | 277 | 14.5 | 22.5 | 0.00 | 0.00 | 0.00 | 23 | 1003.8 |
| 20260505014602 | 22 | 271 | 16.1 | 22.5 | 0.00 | 0.00 | 0.00 | 22 | 1003.8 |
| 20260505014059 | 22 | 255 | 17.7 | 22.5 | 0.00 | 0.00 | 0.00 | 23 | 1003.8 |
| 20260505013559 | 22 | 236 | 17.7 | 22.5 | 0.00 | 0.00 | 0.00 | 22 | 1003.9 |
| 20260505013058 | 22 | 269 | 17.7 | 19.3 | 0.00 | 0.00 | 0.00 | 20 | 1003.9 |
| 20260505012557 | 23 | 273 | 12.9 | 22.5 | 0.00 | 0.00 | 0.00 | 21 | 1003.9 |
| 20260505012057 | 23 | 273 | 12.9 | 20.9 | 0.00 | 0.00 | 0.00 | 22 | 1003.9 |
| 20260505011558 | 23 | 252 | 11.3 | 17.7 | 0.00 | 0.00 | 0.00 | 20 | 1003.9 |
| 20260505011056 | 23 | 263 | 9.7 | 17.7 | 0.00 | 0.00 | 0.00 | 21 | 1003.9 |
| 20260505010555 | 23 | 269 | 14.5 | 17.7 | 0.00 | 0.00 | 0.00 | 20 | 1004.0 |
| 20260505010053 | 24 | 248 | 9.7 | 9.7 | 0.00 | 0.00 | 0.00 | 20 | 1004.0 |
| 20260505005552 | 23 | 294 | 6.4 | 17.7 | 0.00 | 0.00 | 0.00 | 20 | 1004.0 |
| 20260505005052 | 23 | 287 | 11.3 | 19.3 | 0.00 | 0.00 | 0.00 | 19 | 1004.0 |
| 20260505004739 | 23 | 294 | 12.9 | 20.9 | 0.00 | 0.00 | 0.00 | 21 | 1004.0 |
| 20260505004551 | 23 | 294 | 12.9 | 20.9 | 0.00 | 0.00 | 0.00 | 21 | 1004.0 |
| 20260505004051 | 23 | 287 | 12.9 | 16.1 | 0.00 | 0.00 | 0.00 | 18 | 1004.1 |
| 20260505003550 | 24 | 295 | 11.3 | 14.5 | 0.00 | 0.00 | 0.00 | 21 | 1004.1 |
| 20260505003050 | 23 | 238 | 8.0 | 19.3 | 0.00 | 0.00 | 0.00 | 19 | 1004.1 |
| 20260505002548 | 23 | 273 | 16.1 | 20.9 | 0.00 | 0.00 | 0.00 | 19 | 1004.1 |
| 20260505002048 | 23 | 284 | 12.9 | 17.7 | 0.00 | 0.00 | 0.00 | 19 | 1004.1 |
| 20260505001547 | 23 | 277 | 11.3 | 22.5 | 0.00 | 0.00 | 0.00 | 18 | 1004.3 |
| 20260505001047 | 23 | 269 | 16.1 | 22.5 | 0.00 | 0.00 | 0.00 | 18 | 1004.3 |
| 20260505000546 | 23 | 267 | 16.1 | 17.7 | 0.00 | 0.00 | 0.00 | 18 | 1004.3 |
| 20260505000046 | 24 | 287 | 12.9 | 22.5 | 0.00 | 0.00 | 0.00 | 16 | 1004.3 |
| 20260504235545 | 23 | 280 | 11.3 | 20.9 | 0.00 | 0.00 | 0.00 | 18 | 1004.3 |
| 20260504235045 | 23 | 281 | 12.9 | 24.1 | 0.00 | 0.00 | 0.00 | 17 | 1004.3 |
| 20260504234544 | 23 | 277 | 19.3 | 25.7 | 0.00 | 0.00 | 0.00 | 18 | 1004.3 |
| 20260504234044 | 23 | 274 | 14.5 | 22.5 | 0.00 | 0.00 | 0.00 | 17 | 1004.1 |
| 20260504233543 | 23 | 308 | 16.1 | 20.9 | 0.00 | 0.00 | 0.00 | 18 | 1004.3 |
| 20260504233043 | 23 | 298 | 14.5 | 22.5 | 0.00 | 0.00 | 0.00 | 18 | 1004.3 |
| 20260504232619 | 23 | 285 | 16.1 | 22.5 | 0.00 | 0.00 | 0.00 | 17 | 1004.3 |
| 20260504232542 | 23 | 285 | 16.1 | 22.5 | 0.00 | 0.00 | 0.00 | 17 | 1004.3 |
| 20260504232041 | 23 | 266 | 14.5 | 20.9 | 0.00 | 0.00 | 0.00 | 18 | 1004.3 |
| 20260504231541 | 23 | 278 | 16.1 | 27.4 | 0.00 | 0.00 | 0.00 | 17 | 1004.4 |
| 20260504231116 | 24 | 284 | 12.9 | 20.9 | 0.00 | 0.00 | 0.00 | 18 | 1004.3 |
| 20260504231040 | 24 | 284 | 12.9 | 20.9 | 0.00 | 0.00 | 0.00 | 18 | 1004.3 |
| 20260504230617 | 23 | 280 | 16.1 | 22.5 | 0.00 | 0.00 | 0.00 | 17 | 1004.4 |
| 20260504230540 | 23 | 280 | 16.1 | 22.5 | 0.00 | 0.00 | 0.00 | 17 | 1004.4 |
| 20260504230040 | 23 | 270 | 16.1 | 25.7 | 0.00 | 0.00 | 0.00 | 20 | 1004.4 |
| 20260504225539 | 23 | 291 | 17.7 | 24.1 | 0.00 | 0.00 | 0.00 | 20 | 1004.5 |
| 20260504225038 | 23 | 309 | 19.3 | 27.4 | 0.00 | 0.00 | 0.00 | 21 | 1004.6 |
| 20260504224538 | 23 | 281 | 16.1 | 22.5 | 0.00 | 0.00 | 0.00 | 20 | 1004.6 |
| 20260504224037 | 23 | 280 | 17.7 | 30.6 | 0.00 | 0.00 | 0.00 | 23 | 1004.6 |
| 20260504223035 | 23 | 314 | 17.7 | 27.4 | 0.00 | 0.00 | 0.00 | 22 | 1004.7 |
| 20260504222535 | 23 | 280 | 19.3 | 27.4 | 0.00 | 0.00 | 0.00 | 22 | 1004.8 |
| 20260504222034 | 23 | 301 | 19.3 | 25.7 | 0.00 | 0.00 | 0.00 | 20 | 1004.8 |
| 20260504221033 | 23 | 284 | 14.5 | 19.3 | 0.00 | 0.00 | 0.00 | 20 | 1005.2 |
| 20260504220533 | 23 | 315 | 12.9 | 25.7 | 0.00 | 0.00 | 0.00 | 22 | 1005.2 |
| 20260504220032 | 23 | 281 | 19.3 | 19.3 | 0.00 | 0.00 | 0.00 | 24 | 1005.2 |
| 20260504215532 | 23 | 288 | 9.7 | 17.7 | 0.00 | 0.00 | 0.00 | 22 | 1005.3 |
| 20260504215031 | 23 | 315 | 12.9 | 24.1 | 0.00 | 0.00 | 0.00 | 26 | 1005.4 |
| 20260504214619 | 23 | 285 | 14.5 | 25.7 | 0.00 | 0.00 | 0.00 | 27 | 1005.4 |
| 20260504214531 | 23 | 285 | 14.5 | 25.7 | 0.00 | 0.00 | 0.00 | 27 | 1005.4 |
| 20260504214029 | 23 | 319 | 16.1 | 24.1 | 0.00 | 0.00 | 0.00 | 26 | 1005.5 |
| 20260504213529 | 22 | 255 | 17.7 | 20.9 | 0.00 | 0.00 | 0.00 | 24 | 1005.6 |
| 20260504213028 | 22 | 307 | 12.9 | 24.1 | 0.00 | 0.00 | 0.00 | 28 | 1005.6 |
| 20260504212027 | 22 | 274 | 16.1 | 24.1 | 0.00 | 0.00 | 0.00 | 27 | 1006.0 |
| 20260504211526 | 22 | 273 | 17.7 | 24.1 | 0.00 | 0.00 | 0.00 | 28 | 1006.0 |
| 20260504211025 | 22 | 277 | 17.7 | 19.3 | 0.00 | 0.00 | 0.00 | 27 | 1006.1 |
| 20260504210525 | 22 | 294 | 14.5 | 29.0 | 0.00 | 0.00 | 0.00 | 30 | 1006.1 |
| 20260504210024 | 22 | 283 | 17.7 | 30.6 | 0.00 | 0.00 | 0.00 | 30 | 1006.2 |
| 20260504205524 | 22 | 281 | 11.3 | 25.7 | 0.00 | 0.00 | 0.00 | 30 | 1006.2 |
| 20260504205023 | 21 | 274 | 20.9 | 20.9 | 0.00 | 0.00 | 0.00 | 31 | 1006.3 |
| 20260504204523 | 22 | 329 | 12.9 | 25.7 | 0.00 | 0.00 | 0.00 | 32 | 1006.3 |
| 20260504204019 | 22 | 278 | 17.7 | 27.4 | 0.00 | 0.00 | 0.00 | 29 | 1006.5 |
| 20260504203518 | 21 | 281 | 20.9 | 29.0 | 0.00 | 0.00 | 0.00 | 32 | 1006.5 |
| 20260504203018 | 22 | 312 | 20.9 | 32.2 | 0.00 | 0.00 | 0.00 | 33 | 1006.5 |
| 20260504202517 | 22 | 264 | 17.7 | 25.7 | 0.00 | 0.00 | 0.00 | 34 | 1006.5 |
| 20260504202017 | 22 | 271 | 17.7 | 29.0 | 0.00 | 0.00 | 0.00 | 32 | 1006.6 |
| 20260504201016 | 21 | 298 | 17.7 | 27.4 | 0.00 | 0.00 | 0.00 | 35 | 1006.7 |
| 20260504200553 | 22 | 295 | 17.7 | 27.4 | 0.00 | 0.00 | 0.00 | 33 | 1006.8 |
| 20260504200515 | 22 | 295 | 17.7 | 27.4 | 0.00 | 0.00 | 0.00 | 33 | 1006.8 |
| 20260504200015 | 22 | 264 | 20.9 | 30.6 | 0.00 | 0.00 | 0.00 | 32 | 1006.9 |
| 20260504195514 | 21 | 283 | 22.5 | 29.0 | 0.00 | 0.00 | 0.00 | 31 | 1006.9 |
| 20260504195014 | 21 | 287 | 17.7 | 35.4 | 0.00 | 0.00 | 0.00 | 34 | 1006.8 |
| 20260504194513 | 21 | 259 | 20.9 | 29.0 | 0.00 | 0.00 | 0.00 | 33 | 1006.9 |
| 20260504194013 | 21 | 260 | 16.1 | 33.8 | 0.00 | 0.00 | 0.00 | 32 | 1006.9 |
| 20260504193512 | 22 | 270 | 19.3 | 29.0 | 0.00 | 0.00 | 0.00 | 33 | 1007.0 |
| 20260504193012 | 21 | 287 | 19.3 | 30.6 | 0.00 | 0.00 | 0.00 | 32 | 1007.0 |
| 20260504192511 | 21 | 277 | 20.9 | 29.0 | 0.00 | 0.00 | 0.00 | 33 | 1007.0 |
| 20260504192011 | 21 | 283 | 17.7 | 30.6 | 0.00 | 0.00 | 0.00 | 32 | 1007.1 |
| 20260504191510 | 21 | 290 | 20.9 | 30.6 | 0.00 | 0.00 | 0.00 | 32 | 1007.1 |
| 20260504191010 | 21 | 281 | 20.9 | 29.0 | 0.00 | 0.00 | 0.00 | 33 | 1007.3 |
| 20260504190509 | 21 | 267 | 19.3 | 29.0 | 0.00 | 0.00 | 0.00 | 35 | 1007.3 |
| 20260504190009 | 21 | 283 | 19.3 | 29.0 | 0.00 | 0.00 | 0.00 | 35 | 1007.3 |
| 20260504185508 | 21 | 285 | 16.1 | 24.1 | 0.00 | 0.00 | 0.00 | 34 | 1007.4 |
| 20260504185008 | 21 | 240 | 19.3 | 29.0 | 0.00 | 0.00 | 0.00 | 34 | 1007.4 |
| 20260504184507 | 21 | 285 | 17.7 | 30.6 | 0.00 | 0.00 | 0.00 | 34 | 1007.4 |
| 20260504183506 | 20 | 257 | 17.7 | 32.2 | 0.00 | 0.00 | 0.00 | 33 | 1007.6 |
| 20260504183053 | 20 | 269 | 27.4 | 32.2 | 0.00 | 0.00 | 0.00 | 32 | 1007.6 |
| 20260504183006 | 20 | 269 | 27.4 | 32.2 | 0.00 | 0.00 | 0.00 | 32 | 1007.6 |
| 20260504182505 | 20 | 300 | 16.1 | 27.4 | 0.00 | 0.00 | 0.00 | 32 | 1007.8 |
| 20260504182004 | 20 | 267 | 17.7 | 20.9 | 0.00 | 0.00 | 0.00 | 31 | 1007.7 |
| 20260504181504 | 21 | 207 | 16.1 | 30.6 | 0.00 | 0.00 | 0.00 | 29 | 1008.0 |
| 20260504181003 | 21 | 293 | 16.1 | 27.4 | 0.00 | 0.00 | 0.00 | 31 | 1008.0 |
| 20260504180503 | 20 | 262 | 20.9 | 25.7 | 0.00 | 0.00 | 0.00 | 30 | 1008.1 |
| 20260504180002 | 20 | 225 | 14.5 | 27.4 | 0.00 | 0.00 | 0.00 | 30 | 1008.1 |
| 20260504175502 | 21 | 278 | 11.3 | 19.3 | 0.00 | 0.00 | 0.00 | 31 | 1008.1 |
| 20260504175001 | 20 | 277 | 14.5 | 24.1 | 0.00 | 0.00 | 0.00 | 31 | 1008.2 |
| 20260504174000 | 20 | 264 | 16.1 | 25.7 | 0.00 | 0.00 | 0.00 | 34 | 1008.2 |
| 20260504173500 | 20 | 211 | 16.1 | 29.0 | 0.00 | 0.00 | 0.00 | 31 | 1008.3 |
| 20260504172959 | 19 | 267 | 20.9 | 27.4 | 0.00 | 0.00 | 0.00 | 32 | 1008.3 |
| 20260504172459 | 20 | 240 | 22.5 | 20.9 | 0.00 | 0.00 | 0.00 | 33 | 1008.3 |
| 20260504171959 | 19 | 274 | 17.7 | 24.1 | 0.00 | 0.00 | 0.00 | 32 | 1008.3 |
| 20260504171458 | 19 | 232 | 20.9 | 25.7 | 0.00 | 0.00 | 0.00 | 31 | 1008.4 |
| 20260504170957 | 19 | 266 | 16.1 | 35.4 | 0.00 | 0.00 | 0.00 | 32 | 1008.4 |
| 20260504170456 | 19 | 239 | 19.3 | 25.7 | 0.00 | 0.00 | 0.00 | 32 | 1008.4 |